Location: Mohawk View
(42.7837°N, 73.7885°W)
Time: 08:43:47
(UTC+00:00)

Meteor 1-24 Rocket - Pass Details

Date: 30 October 2021
Orbit: 790 x 927 km, 81.3° (Epoch: 27 November)

Event Time Altitude Azimuth Distance (km) Brightness Sun altitude
Rises 22:18:05 0° 329° (NNW) 3,534 7.2 -5.8°
Reaches altitude 10° 22:22:10 10° 302° (WNW) 2,610 7.0 -6.5°
Maximum altitude 22:24:28 12° 279° (W) 2,445 7.4 -6.9°
Drops below altitude 10° 22:26:46 10° 256° (WSW) 2,620 8.1 -7.4°
Sets 22:30:55 0° 228° (SW) 3,564 8.1 -8.1°
